Weather History for KFLG - October, 2010

Change the Weather History Date:

Monday, October 18, 2010

  Actual Average Record
Temperature  
Mean Temperature 50 °F 46 °F  
Max Temperature 64 °F 61 °F 78 °F (1921)
Min Temperature 36 °F 31 °F 10 °F (1971)
Degree Days  
Heating Degree Days 15 19  
Month to date heating degree days 224 290  
Since 1 July heating degree days 419 607  
Cooling Degree Days 0 0  
Month to date cooling degree days 0 0  
Year to date cooling degree days 160 117  
Moisture  
Dew Point 41 °F    
Average Humidity 70    
Maximum Humidity 96    
Minimum Humidity 43    
Precipitation  
Precipitation 0.01 in 0.06 in 1.75 in (1949)
Month to date precipitation 2.52 1.00  
Year to date precipitation 22.29 17.57  
Snow  
Snow 0.00 in 0.10 in 5.50 in (1908)
Month to date snowfall 0.0 0.5  
Since 1 July snowfall 0.0 0.5  
Snow Depth -    
Sea Level Pressure  
Sea Level Pressure 29.99 in    
Wind  
Wind Speed 2 mph (ESE)    
Max Wind Speed 16 mph    
Max Gust Speed 23 mph    
Visibility 10 miles    
Events      
T = Trace of Precipitation, MM = Missing Value Source: NWS Daily Summary

Daily Weather History Graph

Daily Weather History Graph

Search for Another Location

Airport or City:

Trip Planner

Search our weather history database for the weather conditions in past years. The results will help you decide how hot, cold, wet, or windy it might be!

Date:

Astronomy

Oct. 18, 2010 Rise Set
Actual Time 6:35 AM MST 5:47 PM MST
Civil Twilight 6:09 AM MST 6:13 PM MST
Nautical Twilight 5:40 AM MST 6:42 PM MST
Astronomical Twilight 5:10 AM MST 7:12 PM MST
Moon 3:26 PM MST (10/18) 2:36 AM MST (10/18)
Length of Visible Light 12h 03m
Length of Day
11h 12m
Waxing Gibbous, 84% of the Moon is Illuminated
Oct 18
Waxing Gibbous
Oct 22
Full
Oct 30
Last Quarter
Nov 5
New
Nov 13
First Quarter

Hourly Weather History & Observations

Time (MST) Temp. Dew Point Humidity Pressure Visibility Wind Dir Wind Speed Gust Speed Precip Events Conditions
12:56 AM 45.0 °F 42.1 °F 90% 29.95 in 10.0 mi Calm Calm - N/A   Clear
1:56 AM 44.1 °F 42.1 °F 93% 29.96 in 10.0 mi Calm Calm - N/A   Scattered Clouds
2:56 AM 44.1 °F 42.1 °F 93% 29.95 in 10.0 mi Calm Calm - 0.00 in   Mostly Cloudy
3:56 AM 42.1 °F 39.9 °F 92% 29.98 in 10.0 mi Calm Calm - N/A   Clear
4:56 AM 39.0 °F 37.0 °F 93% 30.01 in 10.0 mi Calm Calm - N/A   Clear
5:56 AM 37.0 °F 35.1 °F 93% 30.06 in 10.0 mi Calm Calm - N/A   Clear
6:56 AM 37.0 °F 35.1 °F 93% 30.08 in 10.0 mi Calm Calm - N/A   Partly Cloudy
7:56 AM 45.0 °F 42.1 °F 90% 30.06 in 10.0 mi Calm Calm - N/A   Scattered Clouds
8:56 AM 50.0 °F 44.1 °F 80% 30.04 in 10.0 mi Calm Calm - N/A   Clear
9:56 AM 54.0 °F 46.0 °F 75% 30.01 in 10.0 mi Variable 5.8 mph - N/A   Clear
10:56 AM 55.0 °F 45.0 °F 69% 30.01 in 10.0 mi ESE 3.5 mph - N/A   Mostly Cloudy
11:56 AM 57.9 °F 44.1 °F 60% 29.98 in 10.0 mi NE 3.5 mph - N/A   Scattered Clouds
12:56 PM 57.0 °F 42.1 °F 57% 29.96 in 10.0 mi Calm Calm - N/A   Mostly Cloudy
1:56 PM 60.1 °F 41.0 °F 49% 29.93 in 10.0 mi South 6.9 mph - N/A   Mostly Cloudy
2:56 PM 62.1 °F 39.9 °F 44% 29.90 in 10.0 mi Variable 4.6 mph - N/A   Overcast
3:56 PM 59.0 °F 43.0 °F 55% 29.91 in 10.0 mi ESE 6.9 mph - N/A   Clear
4:56 PM 55.9 °F 41.0 °F 57% 29.95 in 10.0 mi ENE 6.9 mph - N/A   Overcast
5:56 PM 52.0 °F 41.0 °F 66% 29.99 in 10.0 mi NE 8.1 mph - N/A   Mostly Cloudy
6:56 PM 50.0 °F 39.9 °F 68% 30.01 in 10.0 mi Calm Calm - N/A   Scattered Clouds
7:56 PM 48.9 °F 42.1 °F 77% 30.01 in 10.0 mi SE 3.5 mph - N/A   Mostly Cloudy
8:56 PM 48.9 °F 43.0 °F 80% 29.99 in 10.0 mi South 3.5 mph - N/A   Overcast
9:56 PM 48.0 °F 41.0 °F 77% 29.98 in 10.0 mi Variable 3.5 mph - 0.01 in   Mostly Cloudy
10:56 PM 43.0 °F 41.0 °F 93% 29.99 in 10.0 mi Calm Calm - N/A   Clear
11:56 PM 39.9 °F 37.9 °F 93% 29.99 in 10.0 mi Calm Calm - N/A   Clear